MARCH LFTZ-LFKF

Flight info

Callsign MARCH
Flight time 0h 37m
Altitude 19000
Route VAREK
Aircraft C750/M-SBDE3FGHRWXY/S

Departure

Time 2026-04-25 09:58
Airport La Môle Airport (LFTZ)

Arrival

Time 2026-04-25 10:35
Airport Figari Sud-Corse Airport (LFKF)
Time Latitude Longitude Altitude Speed Heading
2026-04-25 09:43 43.20359 6.47523 53 ft 0 kts 62°
2026-04-25 09:57 43.20357 6.47545 56 ft 3 kts 141°
2026-04-25 09:57 43.20339 6.47532 57 ft 3 kts 227°
2026-04-25 09:57 43.20305 6.47514 60 ft 9 kts 155°
2026-04-25 09:58 43.20296 6.47556 60 ft 0 kts 63°
2026-04-25 09:58 43.20308 6.47589 57 ft 26 kts 63°
2026-04-25 09:58 43.20593 6.48321 57 ft 143 kts 62°
2026-04-25 09:58 43.21042 6.49487 1002 ft 130 kts 61°
2026-04-25 09:59 43.21540 6.50529 1976 ft 138 kts 55°
2026-04-25 09:59 43.21806 6.51918 2485 ft 163 kts 89°
2026-04-25 09:59 43.21804 6.53522 3217 ft 173 kts 88°
2026-04-25 09:59 43.21867 6.55214 3896 ft 182 kts 87°
2026-04-25 10:00 43.21905 6.57036 4468 ft 206 kts 89°
2026-04-25 10:00 43.21935 6.59200 4789 ft 245 kts 89°
2026-04-25 10:00 43.21795 6.61644 5371 ft 271 kts 100°
2026-04-25 10:00 43.21476 6.64277 6202 ft 284 kts 99°
2026-04-25 10:01 43.21184 6.66954 7360 ft 286 kts 98°
2026-04-25 10:01 43.20891 6.69656 8522 ft 288 kts 98°
2026-04-25 10:01 43.20584 6.72388 9641 ft 292 kts 99°
2026-04-25 10:01 43.20270 6.75133 10522 ft 302 kts 99°
2026-04-25 10:02 43.19934 6.78099 10848 ft 329 kts 99°
2026-04-25 10:02 43.19570 6.81327 11024 ft 356 kts 99°
2026-04-25 10:02 43.19184 6.84736 11676 ft 364 kts 99°
2026-04-25 10:02 43.18792 6.88170 12531 ft 366 kts 99°
2026-04-25 10:03 43.18396 6.91639 13331 ft 370 kts 99°
2026-04-25 10:03 43.17995 6.95143 14059 ft 375 kts 99°
2026-04-25 10:03 43.17586 6.98703 14691 ft 381 kts 99°
2026-04-25 10:03 43.17172 7.02293 15459 ft 382 kts 99°
2026-04-25 10:04 43.16756 7.05901 16132 ft 387 kts 99°
2026-04-25 10:04 43.16332 7.09564 16805 ft 392 kts 98°
2026-04-25 10:04 43.15902 7.13267 17578 ft 395 kts 98°
2026-04-25 10:04 43.15468 7.16991 18365 ft 399 kts 98°
2026-04-25 10:05 43.15028 7.20757 18946 ft 403 kts 98°
2026-04-25 10:05 43.14577 7.24623 19113 ft 422 kts 98°
2026-04-25 10:05 43.14104 7.28647 19115 ft 431 kts 98°
2026-04-25 10:05 43.13618 7.32760 19120 ft 443 kts 98°
2026-04-25 10:06 43.13128 7.36900 19122 ft 440 kts 98°
2026-04-25 10:06 43.12641 7.41013 19123 ft 441 kts 98°
2026-04-25 10:06 43.12142 7.45192 19121 ft 452 kts 98°
2026-04-25 10:06 43.11301 7.49330 19103 ft 453 kts 110°
2026-04-25 10:07 43.09934 7.53231 19114 ft 459 kts 120°
2026-04-25 10:07 43.08091 7.56774 19111 ft 456 kts 130°
2026-04-25 10:07 43.05826 7.59845 19110 ft 457 kts 140°
2026-04-25 10:07 43.03206 7.62338 19113 ft 462 kts 150°
2026-04-25 10:08 43.00291 7.64193 19116 ft 463 kts 159°
2026-04-25 10:08 42.97248 7.65689 19133 ft 464 kts 160°
2026-04-25 10:08 42.94237 7.67178 19136 ft 459 kts 160°
2026-04-25 10:08 42.91230 7.68682 19139 ft 460 kts 160°
2026-04-25 10:09 42.88226 7.70172 19133 ft 459 kts 160°
2026-04-25 10:09 42.85225 7.71646 19134 ft 459 kts 160°
2026-04-25 10:09 42.82255 7.73112 19140 ft 461 kts 160°
2026-04-25 10:09 42.79232 7.74610 19142 ft 464 kts 160°
2026-04-25 10:10 42.76210 7.76100 19140 ft 462 kts 160°
2026-04-25 10:10 42.73200 7.77578 19141 ft 458 kts 160°
2026-04-25 10:10 42.70205 7.79050 19140 ft 458 kts 160°
2026-04-25 10:10 42.67189 7.80536 19141 ft 461 kts 160°
2026-04-25 10:11 42.64162 7.82025 19140 ft 463 kts 160°
2026-04-25 10:11 42.61143 7.83503 19140 ft 462 kts 160°
2026-04-25 10:11 42.58128 7.84979 19142 ft 459 kts 160°
2026-04-25 10:11 42.55124 7.86450 19142 ft 460 kts 160°
2026-04-25 10:12 42.52117 7.87922 19139 ft 458 kts 160°
2026-04-25 10:12 42.49112 7.89389 19141 ft 458 kts 160°
2026-04-25 10:12 42.43087 7.92329 19146 ft 461 kts 160°
2026-04-25 10:13 42.40058 7.93804 19146 ft 462 kts 160°
2026-04-25 10:13 42.37041 7.95269 19146 ft 459 kts 160°
2026-04-25 10:13 42.34061 7.96826 19127 ft 459 kts 155°
2026-04-25 10:13 42.31360 7.98950 19134 ft 434 kts 145°
2026-04-25 10:14 42.29024 8.01526 19136 ft 433 kts 136°
2026-04-25 10:14 42.26966 8.04500 19142 ft 433 kts 131°
2026-04-25 10:14 42.24937 8.07515 19148 ft 435 kts 132°
2026-04-25 10:14 42.22891 8.10514 19154 ft 435 kts 132°
2026-04-25 10:15 42.20853 8.13515 19156 ft 435 kts 132°
2026-04-25 10:15 42.18827 8.16519 19157 ft 434 kts 132°
2026-04-25 10:15 42.16794 8.19522 19154 ft 432 kts 132°
2026-04-25 10:15 42.14756 8.22514 19158 ft 433 kts 132°
2026-04-25 10:16 42.12719 8.25505 19151 ft 435 kts 132°
2026-04-25 10:16 42.10697 8.28479 19084 ft 417 kts 132°
2026-04-25 10:16 42.08802 8.31256 18762 ft 397 kts 132°
2026-04-25 10:16 42.06937 8.33991 18392 ft 394 kts 132°
2026-04-25 10:17 42.05106 8.36675 17994 ft 384 kts 132°
2026-04-25 10:17 42.03301 8.39318 17633 ft 383 kts 132°
2026-04-25 10:17 42.01500 8.41953 17277 ft 382 kts 133°
2026-04-25 10:17 41.99710 8.44567 16921 ft 379 kts 133°
2026-04-25 10:18 41.97928 8.47168 16567 ft 378 kts 132°
2026-04-25 10:18 41.96153 8.49758 16214 ft 377 kts 133°
2026-04-25 10:18 41.94386 8.52331 15862 ft 373 kts 133°
2026-04-25 10:18 41.92622 8.54900 15512 ft 372 kts 133°
2026-04-25 10:19 41.90860 8.57463 15164 ft 374 kts 133°
2026-04-25 10:19 41.89107 8.60013 14816 ft 370 kts 133°
2026-04-25 10:19 41.87358 8.62552 14471 ft 371 kts 133°
2026-04-25 10:19 41.85639 8.65046 14130 ft 369 kts 132°
2026-04-25 10:20 41.83885 8.67588 13764 ft 365 kts 132°
2026-04-25 10:20 41.82161 8.70087 13412 ft 365 kts 132°
2026-04-25 10:20 41.80442 8.72575 13068 ft 362 kts 133°
2026-04-25 10:20 41.78731 8.75047 12720 ft 361 kts 133°
2026-04-25 10:21 41.77039 8.77519 12393 ft 359 kts 131°
2026-04-25 10:21 41.75500 8.80146 12057 ft 358 kts 128°
2026-04-25 10:21 41.73945 8.82733 11728 ft 356 kts 129°
2026-04-25 10:21 41.72385 8.85297 11396 ft 354 kts 129°
2026-04-25 10:22 41.70854 8.87873 11066 ft 351 kts 128°
2026-04-25 10:22 41.69396 8.90338 10743 ft 324 kts 128°
2026-04-25 10:22 41.68058 8.92574 10451 ft 302 kts 129°
2026-04-25 10:22 41.66761 8.94738 10157 ft 296 kts 129°
2026-04-25 10:23 41.65486 8.96871 9846 ft 292 kts 128°
2026-04-25 10:23 41.64224 8.98985 9539 ft 290 kts 128°
2026-04-25 10:23 41.62967 9.01086 9176 ft 288 kts 128°
2026-04-25 10:23 41.61720 9.03166 8878 ft 286 kts 128°
2026-04-25 10:24 41.60482 9.05232 8605 ft 284 kts 128°
2026-04-25 10:24 41.59248 9.07290 8340 ft 283 kts 128°
2026-04-25 10:24 41.58019 9.09338 8087 ft 282 kts 128°
2026-04-25 10:24 41.56793 9.11379 7822 ft 281 kts 128°
2026-04-25 10:25 41.55573 9.13410 7561 ft 280 kts 128°
2026-04-25 10:25 41.54361 9.15427 7305 ft 277 kts 128°
2026-04-25 10:25 41.53157 9.17434 7053 ft 277 kts 128°
2026-04-25 10:25 41.51958 9.19433 6811 ft 275 kts 128°
2026-04-25 10:26 41.50764 9.21419 6555 ft 274 kts 128°
2026-04-25 10:26 41.49584 9.23380 6289 ft 264 kts 128°
2026-04-25 10:26 41.48499 9.25232 6190 ft 241 kts 124°
2026-04-25 10:26 41.47948 9.27228 6067 ft 223 kts 99°
2026-04-25 10:27 41.47725 9.29205 5939 ft 211 kts 99°
2026-04-25 10:27 41.47488 9.31108 5707 ft 206 kts 99°
2026-04-25 10:27 41.47257 9.32976 5451 ft 203 kts 99°
2026-04-25 10:27 41.47085 9.34828 5165 ft 201 kts 89°
2026-04-25 10:28 41.47546 9.36553 4926 ft 198 kts 55°
2026-04-25 10:28 41.48585 9.37697 4979 ft 198 kts 27°
2026-04-25 10:28 41.49881 9.38406 4838 ft 202 kts 21°
2026-04-25 10:28 41.51182 9.39087 4656 ft 200 kts 21°
2026-04-25 10:29 41.52475 9.39778 4469 ft 199 kts 21°
2026-04-25 10:29 41.53759 9.40457 4280 ft 196 kts 20°
2026-04-25 10:29 41.55088 9.40574 4043 ft 192 kts 347°
2026-04-25 10:29 41.56261 9.39771 3894 ft 191 kts 317°
2026-04-25 10:30 41.56968 9.38299 3737 ft 190 kts 288°
2026-04-25 10:30 41.57087 9.37152 3637 ft 189 kts 269°
2026-04-25 10:30 41.56935 9.34806 3456 ft 190 kts 265°
2026-04-25 10:30 41.56829 9.33049 3274 ft 189 kts 265°
2026-04-25 10:31 41.56718 9.31312 3110 ft 185 kts 265°
2026-04-25 10:31 41.56608 9.29628 2923 ft 184 kts 265°
2026-04-25 10:31 41.56497 9.27936 2770 ft 183 kts 265°
2026-04-25 10:31 41.56389 9.26291 2589 ft 173 kts 265°
2026-04-25 10:32 41.56288 9.24735 2453 ft 167 kts 265°
2026-04-25 10:32 41.56187 9.23194 2314 ft 166 kts 265°
2026-04-25 10:32 41.56089 9.21704 2150 ft 151 kts 265°
2026-04-25 10:32 41.56001 9.20396 2010 ft 133 kts 264°
2026-04-25 10:33 41.55711 9.19265 1869 ft 130 kts 242°
2026-04-25 10:33 41.55206 9.18291 1600 ft 129 kts 236°
2026-04-25 10:33 41.54700 9.17299 1325 ft 126 kts 236°
2026-04-25 10:33 41.54222 9.16362 1136 ft 120 kts 236°
2026-04-25 10:34 41.53753 9.15420 997 ft 122 kts 236°
2026-04-25 10:34 41.53291 9.14474 831 ft 120 kts 237°
2026-04-25 10:34 41.52835 9.13556 695 ft 119 kts 231°
2026-04-25 10:34 41.52301 9.12724 575 ft 116 kts 226°
2026-04-25 10:35 41.51740 9.11904 397 ft 124 kts 226°
2026-04-25 10:35 41.51160 9.11057 179 ft 122 kts 225°
2026-04-25 10:35 41.50619 9.10270 82 ft 100 kts 227°
2026-04-25 10:35 41.50294 9.09794 65 ft 41 kts 226°
2026-04-25 10:36 41.50182 9.09710 67 ft 13 kts 138°
2026-04-25 10:36 41.50119 9.09787 68 ft 7 kts 136°
2026-04-25 10:36 41.50114 9.09793 68 ft 0 kts 138°
2026-04-25 10:36 41.50113 9.09795 68 ft 2 kts 138°
2026-04-25 10:37 41.50099 9.09812 68 ft 3 kts 133°
2026-04-25 10:37 41.50105 9.09866 68 ft 10 kts 44°
2026-04-25 10:37 41.50148 9.09925 68 ft 7 kts 46°
2026-04-25 10:37 41.50147 9.09958 66 ft 4 kts 136°
2026-04-25 10:38 41.50109 9.09979 63 ft 6 kts 209°
2026-04-25 10:38 41.50095 9.09959 61 ft 1 kts 228°